Weather in Divnaya Gora

Russia / Yaroslavl Oblast     57°30′47″N   38°28′34″E
temp.,
°C
wind,
m/s
gust,
m/s
humid.,
%
clouds,
%
prec.,
mm/h
press.,
hPa
HPBL,
m
4 march, thu
thu400:00−1wsw61295100 0.2 1002800
03:000wsw61298100 1.8 998832
06:00+1w61394100 1.1 9951095
09:00−2wnw6128688 1.8 996902
12:00−2nw588794 0.1 997949
15:00−2nw468597 0.3 998888
18:00−5nnw2294100 0.4 100052
21:00−8nnw129596 0.6 100121
5 march, fri
fri500:00−11wnw129318 0.0 100221
03:00−12wsw22969 0.0 100321
06:00−9wsw259673 0.4 1004162
09:00−7nw379585 0.9 1005374
12:00−6wnw4691100 0.2 1006652
15:00−5wnw4786100 0.4 1009838
18:00−8nw389299 0.1 1010266
21:00−14nnw239374 0.2 101321
6 march, sat
sat600:00−16nw12910 0.0 101520
03:00−17w22910 0.0 101620
06:00−17w239310 0.0 101628
09:00−14w25949 0.0 1016163
12:00−9w359163 0.0 1016442
15:00−7w368882 0.1 1015805
18:00−11wsw239290 0.1 101332
21:00−12ssw379262 0.1 1011139
7 march, sun
sun700:00−8ssw51487100 0.0 1007582
03:00−7sw71593100 0.5 1002940
06:00−5sw71593100 1.3 9961129
09:00−4sw71493100 2.4 9921165
12:00−3sw61295100 2.2 990972
15:00−6wnw71180100 2.9 9921489
18:00−10w398370 0.1 994223
21:00−9ssw3108978 0.1 993386
8 march, mon
mon800:00−7sw51294100 0.2 991765
03:00−9nnw4895100 0.8 991358
06:00−15nw5128797 0.3 993364
09:00−11nw6119393 0.5 997785
12:00−10nw61089100 0.3 1000870
15:00−9nnw6989100 0.6 1004970
18:00−11nnw4993100 0.2 1007667
21:00−13nnw4109496 0.3 1010486